TimeMDT,TemperatureF,Dew PointF,Humidity,Sea Level PressureIn,VisibilityMPH,Wind Direction,Wind SpeedMPH,Gust SpeedMPH,PrecipitationIn,Events,Conditions,WindDirDegrees,DateUTC
12:00 AM,52,48,82,30.07,,East,2.3,,,,,80,2013-09-04 06:00:00
12:00 AM,52.2,48.2,86,30.07,-9999.0,East,2.3,-,N/A,,Unknown,80,2013-09-04 06:00:00
1:00 AM,50.0,46.6,88,30.09,-9999.0,East,2.3,-,N/A,,Unknown,80,2013-09-04 07:00:00
2:00 AM,47.7,45.5,92,30.11,-9999.0,ENE,1.2,-,N/A,,Unknown,70,2013-09-04 08:00:00
3:00 AM,46.4,44.6,93,30.12,-9999.0,ENE,1.2,-,N/A,,Unknown,60,2013-09-04 09:00:00
4:00 AM,44.6,43.0,94,30.12,-9999.0,ENE,2.3,-,N/A,,Unknown,60,2013-09-04 10:00:00
5:00 AM,44.2,43.3,97,30.14,-9999.0,NE,1.2,-,N/A,,Unknown,40,2013-09-04 11:00:00
6:00 AM,43,42,93,30.16,,ENE,1.2,,,,,70,2013-09-04 12:00:00
6:00 AM,43.2,41.7,95,30.16,-9999.0,ENE,1.2,-,N/A,,Unknown,70,2013-09-04 12:00:00
7:00 AM,42.1,41.2,97,30.18,-9999.0,ENE,2.3,-,N/A,,Unknown,60,2013-09-04 13:00:00
8:00 AM,42.1,41.5,98,30.20,-9999.0,East,1.2,-,N/A,,Unknown,90,2013-09-04 14:00:00
9:00 AM,47.7,46.0,94,30.19,-9999.0,East,2.3,-,N/A,,Unknown,80,2013-09-04 15:00:00
10:00 AM,54.5,48.2,79,30.17,-9999.0,West,2.3,-,N/A,,Unknown,260,2013-09-04 16:00:00
11:00 AM,64.2,50.2,60,30.13,-9999.0,WSW,12.7,-,N/A,,Unknown,250,2013-09-04 17:00:00
12:00 PM,71,49,35,30.11,,WSW,11.5,,,,,240,2013-09-04 18:00:00
12:00 PM,70.7,49.1,46,30.11,-9999.0,WSW,11.5,-,N/A,,Unknown,240,2013-09-04 18:00:00
1:00 PM,73.6,39.7,29,30.10,-9999.0,WSW,10.4,-,N/A,,Unknown,250,2013-09-04 19:00:00
2:00 PM,75.4,41.5,30,30.09,-9999.0,WSW,13.8,19.6,N/A,,Unknown,250,2013-09-04 20:00:00
3:00 PM,73.8,37.8,27,30.10,-9999.0,WSW,13.8,19.6,N/A,,Unknown,250,2013-09-04 21:00:00
4:00 PM,74.5,41.7,31,30.09,-9999.0,WSW,13.8,-,N/A,,Unknown,250,2013-09-04 22:00:00
5:00 PM,71.4,43.3,36,30.11,-9999.0,West,15.0,-,N/A,,Unknown,260,2013-09-04 23:00:00
6:00 PM,73,45,26,30.10,,WSW,11.5,,,,,250,2013-09-05 00:00:00
6:00 PM,72.9,45.3,37,30.10,-9999.0,WSW,11.5,-,N/A,,Unknown,250,2013-09-05 00:00:00
7:00 PM,66.4,47.3,50,30.11,-9999.0,WSW,12.7,-,N/A,,Unknown,250,2013-09-05 01:00:00
8:00 PM,63.0,47.7,57,30.09,-9999.0,West,3.5,-,N/A,,Unknown,270,2013-09-05 02:00:00
9:00 PM,59.0,45.9,62,30.10,-9999.0,Calm,Calm,-,N/A,,Unknown,0,2013-09-05 03:00:00
10:00 PM,55.0,46.9,74,30.10,-9999.0,ESE,1.2,-,N/A,,Unknown,110,2013-09-05 04:00:00
11:00 PM,53.2,45.7,76,30.08,-9999.0,East,1.2,-,N/A,,Unknown,80,2013-09-05 05:00:00